Time,TemperatureF,DewpointF,PressureIn,WindDirection,WindDirectionDegrees,WindSpeedMPH,WindSpeedGustMPH,Humidity,HourlyPrecipIn,Conditions,Clouds,dailyrainin,SoftwareType,DateUTC
2013-03-18 00:00:00,20.4,0.5,29.81,SSW,207,4.0,18.0,41,0.00,,---,0.00,VWS V14.01,2013-03-18 06:00:00,
2013-03-18 00:05:00,20.3,0.4,29.82,WSW,247,3.0,8.0,41,0.00,,---,0.00,VWS V14.01,2013-03-18 06:05:00,
2013-03-18 00:10:00,20.1,0.7,29.82,ESE,120,3.0,8.0,42,0.00,,---,0.00,VWS V14.01,2013-03-18 06:10:00,
2013-03-18 00:15:00,20.0,0.6,29.82,NNE,13,3.0,8.0,42,0.00,,---,0.00,VWS V14.01,2013-03-18 06:15:00,
2013-03-18 00:20:00,19.9,0.5,29.82,SW,229,4.0,9.0,42,0.00,,---,0.00,VWS V14.01,2013-03-18 06:20:00,
2013-03-18 00:25:00,19.8,0.4,29.82,SSE,159,4.0,14.0,42,0.00,,---,0.00,VWS V14.01,2013-03-18 06:25:00,
2013-03-18 00:30:00,19.6,0.2,29.82,West,267,3.0,14.0,42,0.00,,---,0.00,VWS V14.01,2013-03-18 06:30:00,
2013-03-18 00:35:00,19.5,0.2,29.82,West,269,4.0,12.0,42,0.00,,---,0.00,VWS V14.01,2013-03-18 06:35:00,
2013-03-18 00:40:00,19.4,-0.4,29.83,NW,309,5.0,12.0,41,0.00,,---,0.00,VWS V14.01,2013-03-18 06:40:00,
2013-03-18 00:45:00,19.2,-0.6,29.83,SW,229,1.0,12.0,41,0.00,,---,0.00,VWS V14.01,2013-03-18 06:45:00,
2013-03-18 00:50:00,19.2,-0.6,29.84,NW,320,4.0,12.0,41,0.00,,---,0.00,VWS V14.01,2013-03-18 06:50:00,
2013-03-18 00:55:00,19.1,-0.7,29.83,SW,215,3.0,12.0,41,0.00,,---,0.00,VWS V14.01,2013-03-18 06:55:00,
2013-03-18 01:00:00,19.0,-0.8,29.83,SW,228,9.0,14.0,41,0.00,,---,0.00,VWS V14.01,2013-03-18 07:00:00,
2013-03-18 01:05:00,19.0,-0.8,29.84,West,264,5.0,6.0,41,0.00,,---,0.00,VWS V14.01,2013-03-18 07:05:00,
2013-03-18 01:10:00,18.8,-1.0,29.84,WSW,240,2.0,11.0,41,0.00,,---,0.00,VWS V14.01,2013-03-18 07:10:00,
2013-03-18 01:15:00,18.7,-0.6,29.84,WSW,249,6.0,11.0,42,0.00,,---,0.00,VWS V14.01,2013-03-18 07:15:00,
2013-03-18 01:20:00,18.6,-0.7,29.84,WNW,295,6.0,14.0,42,0.00,,---,0.00,VWS V14.01,2013-03-18 07:20:00,
2013-03-18 01:25:00,18.5,-0.8,29.84,West,276,2.0,14.0,42,0.00,,---,0.00,VWS V14.01,2013-03-18 07:25:00,
2013-03-18 01:30:00,18.4,-0.9,29.84,WNW,283,4.0,14.0,42,0.00,,---,0.00,VWS V14.01,2013-03-18 07:30:00,
2013-03-18 01:35:00,18.3,-0.9,29.85,WSW,238,4.0,12.0,42,0.00,,---,0.00,VWS V14.01,2013-03-18 07:35:00,
2013-03-18 01:40:00,18.3,-0.9,29.84,SSW,196,3.0,12.0,42,0.00,,---,0.00,VWS V14.01,2013-03-18 07:40:00,
2013-03-18 01:45:00,18.2,-1.0,29.85,WSW,248,4.0,12.0,42,0.00,,---,0.00,VWS V14.01,2013-03-18 07:45:00,
2013-03-18 01:50:00,18.2,-1.5,29.85,SSW,205,5.0,12.0,41,0.00,,---,0.00,VWS V14.01,2013-03-18 07:50:00,
2013-03-18 01:55:00,18.1,-1.6,29.85,SW,219,4.0,12.0,41,0.00,,---,0.00,VWS V14.01,2013-03-18 07:55:00,
2013-03-18 02:00:00,18.0,-1.7,29.85,West,274,7.0,12.0,41,0.00,,---,0.00,VWS V14.01,2013-03-18 08:00:00,
2013-03-18 02:05:00,18.0,-1.7,29.85,SW,222,3.0,10.0,41,0.00,,---,0.00,VWS V14.01,2013-03-18 08:05:00,
2013-03-18 02:10:00,17.9,-1.8,29.85,WSW,255,5.0,10.0,41,0.00,,---,0.00,VWS V14.01,2013-03-18 08:10:00,
2013-03-18 02:15:00,17.9,-1.8,29.86,West,276,4.0,10.0,41,0.00,,---,0.00,VWS V14.01,2013-03-18 08:15:00,
2013-03-18 02:20:00,17.9,-1.8,29.86,WSW,252,4.0,10.0,41,0.00,,---,0.00,VWS V14.01,2013-03-18 08:20:00,
2013-03-18 02:25:00,17.8,-2.4,29.86,SW,215,7.0,10.0,40,0.00,,---,0.00,VWS V14.01,2013-03-18 08:25:00,
2013-03-18 02:30:00,17.7,-2.5,29.86,WSW,239,2.0,10.0,40,0.00,,---,0.00,VWS V14.01,2013-03-18 08:30:00,
2013-03-18 02:35:00,17.6,-2.6,29.86,West,264,3.0,5.0,40,0.00,,---,0.00,VWS V14.01,2013-03-18 08:35:00,
2013-03-18 02:40:00,17.5,-2.7,29.86,South,169,2.0,13.0,40,0.00,,---,0.00,VWS V14.01,2013-03-18 08:40:00,
2013-03-18 02:45:00,17.5,-2.7,29.86,North,9,2.0,13.0,40,0.00,,---,0.00,VWS V14.01,2013-03-18 08:45:00,
2013-03-18 02:50:00,17.4,-3.3,29.87,NNE,19,4.0,13.0,39,0.00,,---,0.00,VWS V14.01,2013-03-18 08:50:00,
2013-03-18 02:55:00,17.4,-2.8,29.87,SW,217,2.0,13.0,40,0.00,,---,0.00,VWS V14.01,2013-03-18 08:55:00,
2013-03-18 03:00:00,17.3,-2.3,29.87,WNW,293,2.0,13.0,41,0.00,,---,0.00,VWS V14.01,2013-03-18 09:00:00,
2013-03-18 03:05:00,17.2,-2.4,29.87,South,187,2.0,4.0,41,0.00,,---,0.00,VWS V14.01,2013-03-18 09:05:00,
2013-03-18 03:10:00,17.1,-2.0,29.87,WNW,302,1.0,8.0,42,0.00,,---,0.00,VWS V14.01,2013-03-18 09:10:00,
2013-03-18 03:15:00,17.0,-1.6,29.87,West,278,7.0,9.0,43,0.00,,---,0.00,VWS V14.01,2013-03-18 09:15:00,
2013-03-18 03:20:00,17.0,-2.6,29.87,SSE,166,2.0,10.0,41,0.00,,---,0.00,VWS V14.01,2013-03-18 09:20:00,
2013-03-18 03:25:00,16.9,-2.2,29.86,SW,222,1.0,10.0,42,0.00,,---,0.00,VWS V14.01,2013-03-18 09:25:00,
2013-03-18 03:30:00,16.7,-2.4,29.86,West,269,5.0,10.0,42,0.00,,---,0.00,VWS V14.01,2013-03-18 09:30:00,
2013-03-18 03:35:00,16.6,-2.5,29.86,West,276,2.0,3.0,42,0.00,,---,0.00,VWS V14.01,2013-03-18 09:35:00,
2013-03-18 03:40:00,16.5,-2.1,29.86,SW,229,1.0,6.0,43,0.00,,---,0.00,VWS V14.01,2013-03-18 09:40:00,
2013-03-18 03:45:00,16.5,-2.1,29.85,SE,136,2.0,7.0,43,0.00,,---,0.00,VWS V14.01,2013-03-18 09:45:00,
2013-03-18 03:50:00,16.5,-1.1,29.85,WSW,238,3.0,7.0,45,0.00,,---,0.00,VWS V14.01,2013-03-18 09:50:00,
2013-03-18 03:55:00,16.5,-1.6,29.84,SW,233,4.0,11.0,44,0.00,,---,0.00,VWS V14.01,2013-03-18 09:55:00,
2013-03-18 04:00:00,16.6,-1.0,29.84,West,263,3.0,11.0,45,0.00,,---,0.00,VWS V14.01,2013-03-18 10:00:00,
2013-03-18 04:05:00,16.6,-1.0,29.84,WSW,249,2.0,2.0,45,0.00,,---,0.00,VWS V14.01,2013-03-18 10:05:00,
2013-03-18 04:10:00,16.6,-1.0,29.84,WSW,249,2.0,2.0,45,0.00,,---,0.00,VWS V14.01,2013-03-18 10:10:00,
2013-03-18 04:15:00,16.6,-1.0,29.84,WSW,249,2.0,2.0,45,0.00,,---,0.00,VWS V14.01,2013-03-18 10:15:00,
2013-03-18 04:20:00,16.6,-1.0,29.83,WSW,249,2.0,2.0,45,0.00,,---,0.00,VWS V14.01,2013-03-18 10:20:00,
2013-03-18 04:25:00,16.6,-1.0,29.83,WSW,249,2.0,2.0,45,0.00,,---,0.00,VWS V14.01,2013-03-18 10:25:00,
2013-03-18 04:30:00,16.6,-1.0,29.83,WSW,249,2.0,2.0,45,0.00,,---,0.00,VWS V14.01,2013-03-18 10:30:00,
2013-03-18 04:35:00,16.6,-1.0,29.83,WSW,249,2.0,2.0,45,0.00,,---,0.00,VWS V14.01,2013-03-18 10:35:00,
2013-03-18 04:40:00,16.6,-1.0,29.83,WSW,249,2.0,2.0,45,0.00,,---,0.00,VWS V14.01,2013-03-18 10:40:00,
2013-03-18 04:45:00,16.6,-1.0,29.84,WSW,249,2.0,2.0,45,0.00,,---,0.00,VWS V14.01,2013-03-18 10:45:00,
2013-03-18 04:50:00,16.6,-1.0,29.84,WSW,249,2.0,2.0,45,0.00,,---,0.00,VWS V14.01,2013-03-18 10:50:00,
2013-03-18 04:55:00,16.6,-1.0,29.84,WSW,249,2.0,2.0,45,0.00,,---,0.00,VWS V14.01,2013-03-18 10:55:00,
2013-03-18 05:00:00,16.6,-1.0,29.85,WSW,249,2.0,2.0,45,0.00,,---,0.00,VWS V14.01,2013-03-18 11:00:00,
2013-03-18 05:05:00,16.6,-1.0,29.85,WSW,249,2.0,2.0,45,0.00,,---,0.00,VWS V14.01,2013-03-18 11:05:00,
2013-03-18 05:10:00,16.6,-1.0,29.84,WSW,249,2.0,2.0,45,0.00,,---,0.00,VWS V14.01,2013-03-18 11:10:00,
2013-03-18 05:15:00,16.6,-1.0,29.84,WSW,249,2.0,2.0,45,0.00,,---,0.00,VWS V14.01,2013-03-18 11:15:00,
2013-03-18 05:20:00,16.6,-1.0,29.85,WSW,249,2.0,2.0,45,0.00,,---,0.00,VWS V14.01,2013-03-18 11:20:00,
2013-03-18 05:25:00,16.6,-1.0,29.85,WSW,249,2.0,2.0,45,0.00,,---,0.00,VWS V14.01,2013-03-18 11:25:00,
2013-03-18 05:30:00,16.6,-1.0,29.85,WSW,249,2.0,2.0,45,0.00,,---,0.00,VWS V14.01,2013-03-18 11:30:00,
2013-03-18 05:35:00,16.6,-1.0,29.85,WSW,249,2.0,2.0,45,0.00,,---,0.00,VWS V14.01,2013-03-18 11:35:00,
2013-03-18 05:40:00,16.6,-1.0,29.85,WSW,249,2.0,2.0,45,0.00,,---,0.00,VWS V14.01,2013-03-18 11:40:00,
2013-03-18 05:45:00,16.6,-1.0,29.85,WSW,249,2.0,2.0,45,0.00,,---,0.00,VWS V14.01,2013-03-18 11:45:00,
2013-03-18 05:50:00,16.6,-1.0,29.85,WSW,249,2.0,2.0,45,0.00,,---,0.00,VWS V14.01,2013-03-18 11:50:00,
2013-03-18 05:55:00,16.6,-1.0,29.85,WSW,249,2.0,2.0,45,0.00,,---,0.00,VWS V14.01,2013-03-18 11:55:00,
2013-03-18 06:00:00,16.6,-1.0,29.84,WSW,249,2.0,2.0,45,0.00,,---,0.00,VWS V14.01,2013-03-18 12:00:00,
2013-03-18 06:05:00,16.6,-1.0,29.84,WSW,249,2.0,2.0,45,0.00,,---,0.00,VWS V14.01,2013-03-18 12:05:00,
2013-03-18 06:10:00,16.6,-1.0,29.84,WSW,249,2.0,2.0,45,0.00,,---,0.00,VWS V14.01,2013-03-18 12:10:00,
2013-03-18 06:15:00,16.6,-1.0,29.84,WSW,249,2.0,2.0,45,0.00,,---,0.00,VWS V14.01,2013-03-18 12:15:00,
2013-03-18 06:20:00,16.6,-1.0,29.84,WSW,249,2.0,2.0,45,0.00,,---,0.00,VWS V14.01,2013-03-18 12:20:00,
2013-03-18 06:25:00,16.6,-1.0,29.84,WSW,249,2.0,2.0,45,0.00,,---,0.00,VWS V14.01,2013-03-18 12:25:00,
2013-03-18 06:30:00,16.6,-1.0,29.83,WSW,249,2.0,2.0,45,0.00,,---,0.00,VWS V14.01,2013-03-18 12:30:00,
2013-03-18 06:35:00,16.6,-1.0,29.84,WSW,249,2.0,2.0,45,0.00,,---,0.00,VWS V14.01,2013-03-18 12:35:00,
2013-03-18 06:40:00,16.6,-1.0,29.85,WSW,249,2.0,2.0,45,0.00,,---,0.00,VWS V14.01,2013-03-18 12:40:00,
2013-03-18 06:45:00,16.6,-1.0,29.84,WSW,249,2.0,2.0,45,0.00,,---,0.00,VWS V14.01,2013-03-18 12:45:00,
2013-03-18 06:50:00,16.6,-1.0,29.84,WSW,249,2.0,2.0,45,0.00,,---,0.00,VWS V14.01,2013-03-18 12:50:00,
2013-03-18 06:55:00,16.6,-1.0,29.85,WSW,249,2.0,2.0,45,0.00,,---,0.00,VWS V14.01,2013-03-18 12:55:00,
2013-03-18 07:00:00,16.6,-1.0,29.85,WSW,249,2.0,2.0,45,0.00,,---,0.00,VWS V14.01,2013-03-18 13:00:00,
2013-03-18 07:05:00,16.6,-1.0,29.86,WSW,249,2.0,2.0,45,0.00,,---,0.00,VWS V14.01,2013-03-18 13:05:00,
2013-03-18 07:10:00,16.6,-1.0,29.85,WSW,249,2.0,2.0,45,0.00,,---,0.00,VWS V14.01,2013-03-18 13:10:00,
2013-03-18 07:15:00,16.6,-1.0,29.85,WSW,249,2.0,2.0,45,0.00,,---,0.00,VWS V14.01,2013-03-18 13:15:00,
2013-03-18 07:20:00,16.6,-1.0,29.85,WSW,249,2.0,2.0,45,0.00,,---,0.00,VWS V14.01,2013-03-18 13:20:00,
2013-03-18 07:25:00,16.6,-1.0,29.85,WSW,249,2.0,2.0,45,0.00,,---,0.00,VWS V14.01,2013-03-18 13:25:00,
2013-03-18 07:30:00,16.6,-1.0,29.85,WSW,249,2.0,2.0,45,0.00,,---,0.00,VWS V14.01,2013-03-18 13:30:00,
2013-03-18 07:35:00,16.6,-1.0,29.84,WSW,249,2.0,2.0,45,0.00,,---,0.00,VWS V14.01,2013-03-18 13:35:00,
2013-03-18 07:40:00,16.6,-1.0,29.85,WSW,249,2.0,2.0,45,0.00,,---,0.00,VWS V14.01,2013-03-18 13:40:00,
2013-03-18 07:45:00,16.6,-1.0,29.86,WSW,249,2.0,2.0,45,0.00,,---,0.00,VWS V14.01,2013-03-18 13:45:00,
2013-03-18 07:50:00,16.6,-1.0,29.86,WSW,249,2.0,2.0,45,0.00,,---,0.00,VWS V14.01,2013-03-18 13:50:00,
2013-03-18 07:55:00,16.6,-1.0,29.86,WSW,249,2.0,2.0,45,0.00,,---,0.00,VWS V14.01,2013-03-18 13:55:00,
2013-03-18 08:00:00,16.6,-1.0,29.86,WSW,249,2.0,2.0,45,0.00,,---,0.00,VWS V14.01,2013-03-18 14:00:00,
2013-03-18 08:05:00,16.6,-1.0,29.86,WSW,249,2.0,2.0,45,0.00,,---,0.00,VWS V14.01,2013-03-18 14:05:00,
2013-03-18 08:10:00,16.6,-1.0,29.87,WSW,249,2.0,2.0,45,0.00,,---,0.00,VWS V14.01,2013-03-18 14:10:00,
2013-03-18 08:15:00,18.0,6.8,29.87,ENE,72,2.0,7.0,61,0.00,,---,0.00,VWS V14.01,2013-03-18 14:15:00,
2013-03-18 08:20:00,18.2,7.0,29.87,SE,128,7.0,10.0,61,0.00,,---,0.00,VWS V14.01,2013-03-18 14:20:00,
2013-03-18 08:25:00,18.5,6.9,29.87,NE,40,2.0,10.0,60,0.00,,---,0.00,VWS V14.01,2013-03-18 14:25:00,
2013-03-18 08:30:00,18.9,7.3,29.87,SE,126,2.0,10.0,60,0.00,,---,0.00,VWS V14.01,2013-03-18 14:30:00,
2013-03-18 08:35:00,19.0,7.4,29.87,NW,317,4.0,5.0,60,0.00,,---,0.00,VWS V14.01,2013-03-18 14:35:00,
2013-03-18 08:40:00,19.3,7.3,29.88,NNW,329,3.0,8.0,59,0.00,,---,0.00,VWS V14.01,2013-03-18 14:40:00,
2013-03-18 08:45:00,19.6,7.6,29.88,SSW,211,2.0,9.0,59,0.00,,---,0.00,VWS V14.01,2013-03-18 14:45:00,
2013-03-18 08:50:00,20.0,8.0,29.88,West,263,4.0,9.0,59,0.00,,---,0.00,VWS V14.01,2013-03-18 14:50:00,
2013-03-18 08:55:00,20.3,8.3,29.87,West,269,3.0,10.0,59,0.00,,---,0.00,VWS V14.01,2013-03-18 14:55:00,
2013-03-18 09:00:00,20.6,8.2,29.87,West,267,3.0,10.0,58,0.00,,---,0.00,VWS V14.01,2013-03-18 15:00:00,
2013-03-18 09:05:00,21.2,8.7,29.87,West,260,5.0,5.0,58,0.00,,---,0.00,VWS V14.01,2013-03-18 15:05:00,
2013-03-18 09:10:00,21.5,7.8,29.88,WSW,249,1.0,11.0,55,0.00,,---,0.00,VWS V14.01,2013-03-18 15:10:00,
2013-03-18 09:15:00,21.7,8.0,29.88,ESE,103,2.0,11.0,55,0.00,,---,0.00,VWS V14.01,2013-03-18 15:15:00,
2013-03-18 09:20:00,22.3,7.8,29.88,WSW,252,8.0,11.0,53,0.00,,---,0.00,VWS V14.01,2013-03-18 15:20:00,
2013-03-18 09:25:00,22.9,8.3,29.88,WSW,243,3.0,11.0,53,0.00,,---,0.00,VWS V14.01,2013-03-18 15:25:00,
2013-03-18 09:30:00,23.2,7.8,29.88,ESE,120,2.0,11.0,51,0.00,,---,0.00,VWS V14.01,2013-03-18 15:30:00,
2013-03-18 09:35:00,23.2,8.2,29.88,WSW,238,5.0,9.0,52,0.00,,---,0.00,VWS V14.01,2013-03-18 15:35:00,
2013-03-18 09:40:00,23.5,8.5,29.89,NNW,330,4.0,9.0,52,0.00,,---,0.00,VWS V14.01,2013-03-18 15:40:00,
2013-03-18 09:45:00,23.7,8.2,29.89,WSW,256,1.0,9.0,51,0.00,,---,0.00,VWS V14.01,2013-03-18 15:45:00,
2013-03-18 09:50:00,24.0,8.1,29.89,West,269,1.0,9.0,50,0.00,,---,0.00,VWS V14.01,2013-03-18 15:50:00,
2013-03-18 09:55:00,24.4,8.9,29.90,NNW,327,5.0,10.0,51,0.00,,---,0.00,VWS V14.01,2013-03-18 15:55:00,
2013-03-18 10:00:00,24.9,9.4,29.91,NNE,30,3.0,10.0,51,0.00,,---,0.00,VWS V14.01,2013-03-18 16:00:00,
2013-03-18 10:05:00,24.7,8.7,29.91,SSW,205,2.0,4.0,50,0.00,,---,0.00,VWS V14.01,2013-03-18 16:05:00,
2013-03-18 10:10:00,24.2,9.1,29.90,NNE,30,8.0,10.0,52,0.00,,---,0.00,VWS V14.01,2013-03-18 16:10:00,
2013-03-18 10:15:00,23.8,8.8,29.91,South,188,4.0,11.0,52,0.00,,---,0.00,VWS V14.01,2013-03-18 16:15:00,
2013-03-18 10:20:00,23.7,9.1,29.92,ESE,104,3.0,14.0,53,0.00,,---,0.00,VWS V14.01,2013-03-18 16:20:00,
2013-03-18 10:25:00,23.8,10.4,29.92,ESE,110,2.0,14.0,56,0.00,,---,0.00,VWS V14.01,2013-03-18 16:25:00,
2013-03-18 10:30:00,23.9,10.1,29.93,WSW,249,4.0,14.0,55,0.00,,---,0.00,VWS V14.01,2013-03-18 16:30:00,
2013-03-18 10:35:00,23.9,10.9,29.93,SSW,203,2.0,4.0,57,0.00,,---,0.00,VWS V14.01,2013-03-18 16:35:00,
2013-03-18 10:40:00,23.9,10.9,29.93,ESE,108,3.0,10.0,57,0.00,,---,0.00,VWS V14.01,2013-03-18 16:40:00,
2013-03-18 10:45:00,23.9,11.3,29.93,NW,307,3.0,10.0,58,0.00,,---,0.00,VWS V14.01,2013-03-18 16:45:00,
2013-03-18 10:50:00,23.8,10.4,29.93,SSW,208,3.0,10.0,56,0.00,,---,0.00,VWS V14.01,2013-03-18 16:50:00,
2013-03-18 10:55:00,24.3,10.9,29.93,West,271,2.0,11.0,56,0.00,,---,0.00,VWS V14.01,2013-03-18 16:55:00,
2013-03-18 11:00:00,24.7,10.4,29.93,South,177,4.0,12.0,54,0.00,,---,0.00,VWS V14.01,2013-03-18 17:00:00,
2013-03-18 11:05:00,25.1,10.4,29.93,SSW,204,3.0,6.0,53,0.00,,---,0.00,VWS V14.01,2013-03-18 17:05:00,
2013-03-18 11:10:00,25.0,10.7,29.93,WSW,252,1.0,10.0,54,0.00,,---,0.00,VWS V14.01,2013-03-18 17:10:00,
2013-03-18 11:15:00,25.3,11.8,29.93,WSW,237,1.0,10.0,56,0.00,,---,0.00,VWS V14.01,2013-03-18 17:15:00,
2013-03-18 11:20:00,25.2,10.5,29.94,WSW,253,6.0,11.0,53,0.00,,---,0.00,VWS V14.01,2013-03-18 17:20:00,
2013-03-18 11:25:00,25.0,11.1,29.93,WSW,256,3.0,13.0,55,0.00,,---,0.00,VWS V14.01,2013-03-18 17:25:00,
2013-03-18 11:30:00,24.8,11.7,29.93,NE,37,4.0,13.0,57,0.00,,---,0.00,VWS V14.01,2013-03-18 17:30:00,
2013-03-18 11:35:00,24.7,12.4,29.92,SW,229,5.0,8.0,59,0.00,,---,0.00,VWS V14.01,2013-03-18 17:35:00,
2013-03-18 11:40:00,24.6,11.6,29.93,SSW,203,5.0,11.0,57,0.00,,---,0.00,VWS V14.01,2013-03-18 17:40:00,
2013-03-18 11:45:00,25.3,11.4,29.92,South,183,4.0,11.0,55,0.00,,---,0.00,VWS V14.01,2013-03-18 17:45:00,
2013-03-18 11:50:00,25.4,11.1,29.92,West,271,6.0,11.0,54,0.00,,---,0.00,VWS V14.01,2013-03-18 17:50:00,
2013-03-18 11:55:00,25.5,10.3,29.92,WSW,238,7.0,14.0,52,0.00,,---,0.00,VWS V14.01,2013-03-18 17:55:00,
2013-03-18 12:00:00,25.7,10.5,29.92,WSW,243,2.0,14.0,52,0.00,,---,0.00,VWS V14.01,2013-03-18 18:00:00,
2013-03-18 12:05:00,26.2,10.6,29.92,SW,224,5.0,5.0,51,0.00,,---,0.00,VWS V14.01,2013-03-18 18:05:00,
2013-03-18 12:10:00,26.2,10.1,29.92,West,277,4.0,14.0,50,0.00,,---,0.00,VWS V14.01,2013-03-18 18:10:00,
2013-03-18 12:15:00,25.8,9.3,29.92,WSW,248,1.0,14.0,49,0.00,,---,0.00,VWS V14.01,2013-03-18 18:15:00,
2013-03-18 12:20:00,26.1,9.1,29.91,WSW,253,6.0,15.0,48,0.00,,---,0.00,VWS V14.01,2013-03-18 18:20:00,
2013-03-18 12:25:00,26.5,9.0,29.92,SW,217,11.0,15.0,47,0.00,,---,0.00,VWS V14.01,2013-03-18 18:25:00,
2013-03-18 12:30:00,26.6,8.1,29.92,SW,215,5.0,15.0,45,0.00,,---,0.00,VWS V14.01,2013-03-18 18:30:00,
2013-03-18 12:35:00,26.4,7.9,29.92,WSW,253,6.0,12.0,45,0.00,,---,0.00,VWS V14.01,2013-03-18 18:35:00,
2013-03-18 12:40:00,26.5,8.5,29.92,SW,231,6.0,12.0,46,0.00,,---,0.00,VWS V14.01,2013-03-18 18:40:00,
2013-03-18 12:45:00,26.6,8.1,29.91,SW,229,6.0,14.0,45,0.00,,---,0.00,VWS V14.01,2013-03-18 18:45:00,
2013-03-18 12:50:00,27.3,8.3,29.91,WSW,242,4.0,14.0,44,0.00,,---,0.00,VWS V14.01,2013-03-18 18:50:00,
2013-03-18 12:55:00,27.5,7.4,29.91,SSE,152,1.0,14.0,42,0.00,,---,0.00,VWS V14.01,2013-03-18 18:55:00,
2013-03-18 13:00:00,27.9,8.3,29.91,West,280,7.0,16.0,43,0.00,,---,0.00,VWS V14.01,2013-03-18 19:00:00,
2013-03-18 13:05:00,28.1,8.0,29.91,West,263,11.0,11.0,42,0.00,,---,0.00,VWS V14.01,2013-03-18 19:05:00,
2013-03-18 13:10:00,27.9,7.8,29.90,West,276,2.0,20.0,42,0.00,,---,0.00,VWS V14.01,2013-03-18 19:10:00,
2013-03-18 13:15:00,28.2,8.1,29.90,ESE,121,4.0,20.0,42,0.00,,---,0.00,VWS V14.01,2013-03-18 19:15:00,
2013-03-18 13:20:00,28.6,8.4,29.90,SSE,152,3.0,20.0,42,0.00,,---,0.00,VWS V14.01,2013-03-18 19:20:00,
2013-03-18 13:24:00,28.3,7.1,29.89,WSW,245,6.0,20.0,40,0.00,,---,0.00,VWS V14.01,2013-03-18 19:24:00,
2013-03-18 13:30:00,28.1,6.9,29.89,West,260,9.0,20.0,40,0.00,,---,0.00,VWS V14.01,2013-03-18 19:30:00,
2013-03-18 13:35:00,28.2,7.0,29.89,ESE,113,5.0,9.0,40,0.00,,---,0.00,VWS V14.01,2013-03-18 19:35:00,
2013-03-18 13:40:00,28.3,7.1,29.90,SSW,208,5.0,14.0,40,0.00,,---,0.00,VWS V14.01,2013-03-18 19:40:00,
2013-03-18 13:44:00,28.4,7.2,29.89,WSW,243,6.0,14.0,40,0.00,,---,0.00,VWS V14.01,2013-03-18 19:44:00,
2013-03-18 13:49:00,28.7,6.3,29.90,WSW,248,3.0,14.0,38,0.00,,---,0.00,VWS V14.01,2013-03-18 19:49:00,
2013-03-18 13:54:00,29.0,7.2,29.88,SSW,212,3.0,14.0,39,0.00,,---,0.00,VWS V14.01,2013-03-18 19:54:00,
2013-03-18 13:59:00,29.4,5.8,29.88,SSW,192,6.0,14.0,36,0.00,,---,0.00,VWS V14.01,2013-03-18 19:59:00,
2013-03-18 14:04:00,29.4,6.4,29.88,SW,215,6.0,10.0,37,0.00,,---,0.00,VWS V14.01,2013-03-18 20:04:00,
2013-03-18 14:09:00,29.1,9.4,29.86,NNW,335,5.0,15.0,43,0.00,,---,0.00,VWS V14.01,2013-03-18 20:09:00,
2013-03-18 14:14:00,29.2,6.8,29.85,West,278,3.0,17.0,38,0.00,,---,0.00,VWS V14.01,2013-03-18 20:14:00,
2013-03-18 14:19:00,29.3,8.5,29.84,WSW,247,4.0,17.0,41,0.00,,---,0.00,VWS V14.01,2013-03-18 20:19:00,
2013-03-18 14:24:00,28.5,8.9,29.84,NNW,343,6.0,20.0,43,0.00,,---,0.00,VWS V14.01,2013-03-18 20:24:00,
2013-03-18 14:29:00,28.7,6.9,29.83,South,179,5.0,20.0,39,0.00,,---,0.00,VWS V14.01,2013-03-18 20:29:00,
2013-03-18 14:34:00,29.3,7.4,29.82,WSW,252,8.0,8.0,39,0.00,,---,0.00,VWS V14.01,2013-03-18 20:34:00,
2013-03-18 14:39:00,29.6,7.7,29.82,WSW,249,6.0,14.0,39,0.00,,---,0.00,VWS V14.01,2013-03-18 20:39:00,
2013-03-18 14:44:00,29.8,8.4,29.84,SSW,200,7.0,14.0,40,0.00,,---,0.00,VWS V14.01,2013-03-18 20:44:00,
2013-03-18 14:49:00,29.6,10.4,29.84,WNW,301,10.0,15.0,44,0.00,,---,0.00,VWS V14.01,2013-03-18 20:49:00,
2013-03-18 14:54:00,28.8,10.1,29.84,SW,229,4.0,15.0,45,0.00,,---,0.00,VWS V14.01,2013-03-18 20:54:00,
2013-03-18 14:59:00,28.9,7.1,29.85,NNE,26,7.0,15.0,39,0.00,,---,0.00,VWS V14.01,2013-03-18 20:59:00,
2013-03-18 15:04:00,29.1,7.2,29.84,West,269,5.0,9.0,39,0.00,,---,0.00,VWS V14.01,2013-03-18 21:04:00,
2013-03-18 15:09:00,29.2,7.9,29.85,NW,317,9.0,21.0,40,0.00,,---,0.00,VWS V14.01,2013-03-18 21:09:00,
2013-03-18 15:14:00,28.9,8.2,29.86,SW,229,3.0,21.0,41,0.00,,---,0.00,VWS V14.01,2013-03-18 21:14:00,
2013-03-18 15:19:00,28.6,10.0,29.86,SW,226,3.0,21.0,45,0.00,,---,0.00,VWS V14.01,2013-03-18 21:19:00,
2013-03-18 15:24:00,28.2,11.5,29.87,WNW,285,3.0,21.0,49,0.00,,---,0.00,VWS V14.01,2013-03-18 21:24:00,
2013-03-18 15:29:00,27.9,10.8,29.86,SSW,204,2.0,21.0,48,0.00,,---,0.00,VWS V14.01,2013-03-18 21:29:00,
2013-03-18 15:34:00,28.3,8.2,29.87,SSE,153,3.0,4.0,42,0.00,,---,0.00,VWS V14.01,2013-03-18 21:34:00,
2013-03-18 15:39:00,28.6,7.3,29.87,NNE,14,8.0,11.0,40,0.00,,---,0.00,VWS V14.01,2013-03-18 21:39:00,
2013-03-18 15:44:00,28.5,6.7,29.87,SSE,167,2.0,13.0,39,0.00,,---,0.00,VWS V14.01,2013-03-18 21:44:00,
2013-03-18 15:49:00,28.2,9.6,29.87,NE,52,6.0,13.0,45,0.00,,---,0.00,VWS V14.01,2013-03-18 21:49:00,
2013-03-18 15:54:00,28.0,9.9,29.87,NE,36,5.0,13.0,46,0.00,,---,0.00,VWS V14.01,2013-03-18 21:54:00,
2013-03-18 15:59:00,28.0,8.4,29.87,SSW,207,4.0,13.0,43,0.00,,---,0.00,VWS V14.01,2013-03-18 21:59:00,
2013-03-18 16:04:00,28.5,8.9,29.87,SW,221,4.0,4.0,43,0.00,,---,0.00,VWS V14.01,2013-03-18 22:04:00,
2013-03-18 16:09:00,28.5,7.8,29.88,SW,231,4.0,9.0,41,0.00,,---,0.00,VWS V14.01,2013-03-18 22:09:00,
2013-03-18 16:14:00,28.5,8.3,29.87,SW,218,5.0,10.0,42,0.00,,---,0.00,VWS V14.01,2013-03-18 22:14:00,
2013-03-18 16:19:00,28.9,9.7,29.87,SW,219,3.0,10.0,44,0.00,,---,0.00,VWS V14.01,2013-03-18 22:19:00,
2013-03-18 16:24:00,29.1,7.2,29.88,West,270,6.0,15.0,39,0.00,,---,0.00,VWS V14.01,2013-03-18 22:24:00,
2013-03-18 16:29:00,29.0,7.7,29.87,SSW,210,3.0,17.0,40,0.00,,---,0.00,VWS V14.01,2013-03-18 22:29:00,
2013-03-18 16:34:00,28.9,7.6,29.87,WNW,303,6.0,8.0,40,0.00,,---,0.00,VWS V14.01,2013-03-18 22:34:00,
2013-03-18 16:39:00,28.8,7.5,29.87,WSW,252,11.0,13.0,40,0.00,,---,0.00,VWS V14.01,2013-03-18 22:39:00,
2013-03-18 16:44:00,28.8,8.6,29.88,WSW,245,5.0,14.0,42,0.00,,---,0.00,VWS V14.01,2013-03-18 22:44:00,
2013-03-18 16:49:00,28.8,9.1,29.88,West,266,5.0,14.0,43,0.00,,---,0.00,VWS V14.01,2013-03-18 22:49:00,
2013-03-18 16:54:00,28.6,8.9,29.89,WSW,241,4.0,14.0,43,0.00,,---,0.00,VWS V14.01,2013-03-18 22:54:00,
2013-03-18 16:59:00,28.6,9.5,29.89,SSW,210,6.0,14.0,44,0.00,,---,0.00,VWS V14.01,2013-03-18 22:59:00,
2013-03-18 17:04:00,28.8,8.1,29.89,NW,307,8.0,8.0,41,0.00,,---,0.00,VWS V14.01,2013-03-18 23:04:00,
2013-03-18 17:09:00,28.8,7.5,29.89,WSW,238,4.0,15.0,40,0.00,,---,0.00,VWS V14.01,2013-03-18 23:09:00,
2013-03-18 17:14:00,28.7,7.4,29.89,WSW,255,5.0,15.0,40,0.00,,---,0.00,VWS V14.01,2013-03-18 23:14:00,
2013-03-18 17:19:00,28.6,7.3,29.89,SW,215,6.0,19.0,40,0.00,,---,0.00,VWS V14.01,2013-03-18 23:19:00,
2013-03-18 17:24:00,28.6,7.3,29.89,West,274,4.0,19.0,40,0.00,,---,0.00,VWS V14.01,2013-03-18 23:24:00,
2013-03-18 17:29:00,28.6,7.9,29.90,SW,228,5.0,19.0,41,0.00,,---,0.00,VWS V14.01,2013-03-18 23:29:00,
2013-03-18 17:34:00,28.5,8.3,29.90,WSW,243,5.0,5.0,42,0.00,,---,0.00,VWS V14.01,2013-03-18 23:34:00,
2013-03-18 17:39:00,28.6,8.4,29.90,West,278,6.0,11.0,42,0.00,,---,0.00,VWS V14.01,2013-03-18 23:39:00,
2013-03-18 17:44:00,28.7,9.1,29.91,SSW,207,1.0,11.0,43,0.00,,---,0.00,VWS V14.01,2013-03-18 23:44:00,
2013-03-18 17:49:00,28.7,8.5,29.89,NE,37,5.0,11.0,42,0.00,,---,0.00,VWS V14.01,2013-03-18 23:49:00,
2013-03-18 17:54:00,28.8,8.6,29.90,South,169,4.0,11.0,42,0.00,,---,0.00,VWS V14.01,2013-03-18 23:54:00,
2013-03-18 17:59:00,28.8,8.1,29.91,SSW,212,2.0,12.0,41,0.00,,---,0.00,VWS V14.01,2013-03-18 23:59:00,
2013-03-18 18:04:00,28.7,9.1,29.92,West,264,6.0,11.0,43,0.00,,---,0.00,VWS V14.01,2013-03-19 00:04:00,
2013-03-18 18:09:00,28.6,8.9,29.91,WNW,290,7.0,11.0,43,0.00,,---,0.00,VWS V14.01,2013-03-19 00:09:00,
2013-03-18 18:14:00,28.6,8.9,29.91,West,259,5.0,21.0,43,0.00,,---,0.00,VWS V14.01,2013-03-19 00:14:00,
2013-03-18 18:19:00,28.5,8.9,29.91,SSW,207,4.0,21.0,43,0.00,,---,0.00,VWS V14.01,2013-03-19 00:19:00,
2013-03-18 18:24:00,28.3,9.2,29.91,NNE,16,3.0,21.0,44,0.00,,---,0.00,VWS V14.01,2013-03-19 00:24:00,
2013-03-18 18:29:00,28.2,10.1,29.91,SW,214,4.0,21.0,46,0.00,,---,0.00,VWS V14.01,2013-03-19 00:29:00,
2013-03-18 18:34:00,28.2,10.6,29.91,West,278,4.0,6.0,47,0.00,,---,0.00,VWS V14.01,2013-03-19 00:34:00,
2013-03-18 18:39:00,28.0,11.8,29.92,SSW,211,6.0,8.0,50,0.00,,---,0.00,VWS V14.01,2013-03-19 00:39:00,
2013-03-18 18:44:00,27.8,11.1,29.91,SW,219,2.0,11.0,49,0.00,,---,0.00,VWS V14.01,2013-03-19 00:44:00,
2013-03-18 18:49:00,27.8,11.6,29.92,South,188,1.0,11.0,50,0.00,,---,0.00,VWS V14.01,2013-03-19 00:49:00,
2013-03-18 18:54:00,27.7,11.9,29.92,WNW,300,6.0,11.0,51,0.00,,---,0.00,VWS V14.01,2013-03-19 00:54:00,
2013-03-18 18:59:00,27.7,12.4,29.92,SSW,195,2.0,11.0,52,0.00,,---,0.00,VWS V14.01,2013-03-19 00:59:00,
2013-03-18 19:04:00,27.7,11.9,29.92,West,260,3.0,3.0,51,0.00,,---,0.00,VWS V14.01,2013-03-19 01:04:00,
2013-03-18 19:09:00,27.7,11.9,29.92,WNW,285,2.0,8.0,51,0.00,,---,0.00,VWS V14.01,2013-03-19 01:09:00,
2013-03-18 19:14:00,27.7,11.5,29.92,West,267,9.0,13.0,50,0.00,,---,0.00,VWS V14.01,2013-03-19 01:14:00,
2013-03-18 19:19:00,27.8,12.0,29.92,NE,44,1.0,13.0,51,0.00,,---,0.00,VWS V14.01,2013-03-19 01:19:00,
2013-03-18 19:24:00,27.7,12.4,29.92,West,278,5.0,13.0,52,0.00,,---,0.00,VWS V14.01,2013-03-19 01:24:00,
2013-03-18 19:29:00,27.6,12.3,29.92,WNW,303,2.0,13.0,52,0.00,,---,0.00,VWS V14.01,2013-03-19 01:29:00,
2013-03-18 19:34:00,27.7,11.9,29.92,SW,231,7.0,7.0,51,0.00,,---,0.00,VWS V14.01,2013-03-19 01:34:00,
2013-03-18 19:39:00,27.7,11.9,29.92,WSW,257,2.0,9.0,51,0.00,,---,0.00,VWS V14.01,2013-03-19 01:39:00,
2013-03-18 19:44:00,27.8,12.0,29.92,WNW,298,3.0,10.0,51,0.00,,---,0.00,VWS V14.01,2013-03-19 01:44:00,
2013-03-18 19:49:00,27.9,12.1,29.92,ESE,118,1.0,10.0,51,0.00,,---,0.00,VWS V14.01,2013-03-19 01:49:00,
2013-03-18 19:54:00,27.8,12.5,29.92,NNW,336,4.0,11.0,52,0.00,,---,0.00,VWS V14.01,2013-03-19 01:54:00,
2013-03-18 19:59:00,27.8,12.5,29.91,SW,224,2.0,11.0,52,0.00,,---,0.00,VWS V14.01,2013-03-19 01:59:00,
2013-03-18 20:04:00,27.8,12.5,29.92,WSW,243,3.0,4.0,52,0.00,,---,0.00,VWS V14.01,2013-03-19 02:04:00,
2013-03-18 20:09:00,27.8,12.5,29.92,SE,125,4.0,7.0,52,0.00,,---,0.00,VWS V14.01,2013-03-19 02:09:00,
2013-03-18 20:14:00,27.8,12.9,29.91,WSW,242,3.0,8.0,53,0.00,,---,0.00,VWS V14.01,2013-03-19 02:14:00,
2013-03-18 20:19:00,27.8,12.9,29.92,SW,231,3.0,10.0,53,0.00,,---,0.00,VWS V14.01,2013-03-19 02:19:00,
2013-03-18 20:24:00,27.7,12.8,29.92,North,6,2.0,10.0,53,0.00,,---,0.00,VWS V14.01,2013-03-19 02:24:00,
2013-03-18 20:29:00,27.7,12.8,29.91,SW,222,4.0,10.0,53,0.00,,---,0.00,VWS V14.01,2013-03-19 02:29:00,
2013-03-18 20:34:00,27.8,12.9,29.92,NNW,328,5.0,6.0,53,0.00,,---,0.00,VWS V14.01,2013-03-19 02:34:00,
2013-03-18 20:39:00,27.8,12.9,29.92,ESE,120,2.0,8.0,53,0.00,,---,0.00,VWS V14.01,2013-03-19 02:39:00,
2013-03-18 20:44:00,28.0,12.7,29.92,West,259,3.0,16.0,52,0.00,,---,0.00,VWS V14.01,2013-03-19 02:44:00,
2013-03-18 20:49:00,28.0,12.2,29.92,WNW,297,4.0,16.0,51,0.00,,---,0.00,VWS V14.01,2013-03-19 02:49:00,
2013-03-18 20:54:00,28.0,12.7,29.93,WSW,253,5.0,16.0,52,0.00,,---,0.00,VWS V14.01,2013-03-19 02:54:00,
2013-03-18 20:59:00,28.1,11.9,29.93,SSW,211,3.0,16.0,50,0.00,,---,0.00,VWS V14.01,2013-03-19 02:59:00,
2013-03-18 21:04:00,28.2,12.0,29.93,SSW,207,3.0,4.0,50,0.00,,---,0.00,VWS V14.01,2013-03-19 03:04:00,
2013-03-18 21:09:00,28.2,12.0,29.93,South,180,5.0,11.0,50,0.00,,---,0.00,VWS V14.01,2013-03-19 03:09:00,
2013-03-18 21:14:00,28.3,12.1,29.94,WSW,248,2.0,11.0,50,0.00,,---,0.00,VWS V14.01,2013-03-19 03:14:00,
2013-03-18 21:19:00,28.3,11.6,29.94,NNW,338,3.0,11.0,49,0.00,,---,0.00,VWS V14.01,2013-03-19 03:19:00,
2013-03-18 21:24:00,28.4,11.7,29.94,NW,316,5.0,13.0,49,0.00,,---,0.00,VWS V14.01,2013-03-19 03:24:00,
2013-03-18 21:29:00,28.4,11.7,29.94,WSW,245,5.0,13.0,49,0.00,,---,0.00,VWS V14.01,2013-03-19 03:29:00,
2013-03-18 21:34:00,28.5,11.8,29.94,WSW,258,2.0,5.0,49,0.00,,---,0.00,VWS V14.01,2013-03-19 03:34:00,
2013-03-18 21:39:00,28.5,11.8,29.94,SW,219,4.0,8.0,49,0.00,,---,0.00,VWS V14.01,2013-03-19 03:39:00,
2013-03-18 21:44:00,28.5,11.8,29.94,WNW,295,3.0,13.0,49,0.00,,---,0.00,VWS V14.01,2013-03-19 03:44:00,
2013-03-18 21:49:00,28.5,11.8,29.94,West,276,4.0,13.0,49,0.00,,---,0.00,VWS V14.01,2013-03-19 03:49:00,
2013-03-18 21:54:00,28.5,12.2,29.94,SW,229,3.0,13.0,50,0.00,,---,0.00,VWS V14.01,2013-03-19 03:54:00,
2013-03-18 21:59:00,28.5,11.8,29.95,West,260,5.0,15.0,49,0.00,,---,0.00,VWS V14.01,2013-03-19 03:59:00,
2013-03-18 22:00:00,28.5,11.8,29.95,West,271,2.0,15.0,49,0.00,,---,0.00,VWS V14.01,2013-03-19 04:00:00,
2013-03-18 22:05:00,28.4,11.7,29.94,WNW,285,5.0,10.0,49,0.00,,---,0.00,VWS V14.01,2013-03-19 04:05:00,
2013-03-18 22:10:00,28.4,11.2,29.95,West,267,2.0,13.0,48,0.00,,---,0.00,VWS V14.01,2013-03-19 04:10:00,
2013-03-18 22:15:00,28.4,11.2,29.95,ENE,75,2.0,13.0,48,0.00,,---,0.00,VWS V14.01,2013-03-19 04:15:00,
2013-03-18 22:20:00,28.3,11.1,29.95,WNW,284,2.0,13.0,48,0.00,,---,0.00,VWS V14.01,2013-03-19 04:20:00,
2013-03-18 22:25:00,28.3,11.1,29.96,SW,226,5.0,13.0,48,0.00,,---,0.00,VWS V14.01,2013-03-19 04:25:00,
2013-03-18 22:30:00,28.4,11.2,29.96,SSE,158,5.0,13.0,48,0.00,,---,0.00,VWS V14.01,2013-03-19 04:30:00,
2013-03-18 22:36:00,28.3,11.1,29.96,West,278,12.0,12.0,48,0.00,,---,0.00,VWS V14.01,2013-03-19 04:36:00,
2013-03-18 22:41:00,28.3,11.1,29.96,SSW,193,2.0,12.0,48,0.00,,---,0.00,VWS V14.01,2013-03-19 04:41:00,
2013-03-18 22:46:00,28.2,11.0,29.97,SW,231,3.0,12.0,48,0.00,,---,0.00,VWS V14.01,2013-03-19 04:46:00,
2013-03-18 22:50:00,28.1,11.4,29.98,SW,228,3.0,12.0,49,0.00,,---,0.00,VWS V14.01,2013-03-19 04:50:00,
2013-03-18 22:55:00,27.9,11.7,29.98,WNW,290,5.0,12.0,50,0.00,,---,0.00,VWS V14.01,2013-03-19 04:55:00,
2013-03-18 23:00:00,27.8,11.6,29.98,North,352,1.0,12.0,50,0.00,,---,0.00,VWS V14.01,2013-03-19 05:00:00,
2013-03-18 23:05:00,27.9,11.2,29.98,SSW,195,1.0,3.0,49,0.00,,---,0.00,VWS V14.01,2013-03-19 05:05:00,
2013-03-18 23:11:00,27.8,10.2,29.99,NW,321,2.0,7.0,47,0.00,,---,0.00,VWS V14.01,2013-03-19 05:11:00,
2013-03-18 23:15:00,27.8,11.1,29.99,WSW,239,2.0,7.0,49,0.00,,---,0.00,VWS V14.01,2013-03-19 05:15:00,
2013-03-18 23:20:00,27.6,10.9,29.99,SSW,210,0.0,7.0,49,0.00,,---,0.00,VWS V14.01,2013-03-19 05:20:00,
2013-03-18 23:25:00,27.5,9.9,29.99,WNW,297,1.0,7.0,47,0.00,,---,0.00,VWS V14.01,2013-03-19 05:25:00,
2013-03-18 23:30:00,27.5,10.4,29.99,WSW,257,4.0,7.0,48,0.00,,---,0.00,VWS V14.01,2013-03-19 05:30:00,
2013-03-18 23:35:00,27.4,10.3,29.99,WSW,257,1.0,4.0,48,0.00,,---,0.00,VWS V14.01,2013-03-19 05:35:00,
2013-03-18 23:40:00,27.3,10.2,29.99,West,259,2.0,5.0,48,0.00,,---,0.00,VWS V14.01,2013-03-19 05:40:00,
2013-03-18 23:45:00,27.2,10.1,29.99,NNE,18,3.0,5.0,48,0.00,,---,0.00,VWS V14.01,2013-03-19 05:45:00,
2013-03-18 23:50:00,27.2,9.6,29.99,ESE,122,1.0,8.0,47,0.00,,---,0.00,VWS V14.01,2013-03-19 05:50:00,
2013-03-18 23:55:00,27.1,9.1,29.99,West,281,1.0,8.0,46,0.00,,---,0.00,VWS V14.01,2013-03-19 05:55:00,